Regional Weather Roundup
Issued by NWS

Home | Current Version | Previous Version | Graphics & Text | Print | Product List | Glossary On
Versions: 1 2 3 4 5 6 7 8 9 10 11 12 13 14 15 16 17 18 19 20 21 22 23 24 25 26 27 28 29 30 31 32 33 34 35 36 37 38 39 40 41 42 43 44 45 46 47 48 49 50
000
ASUS45 KTFX 240304
RWRMT
MONTANA HOURLY WEATHER ROUNDUP
NATIONAL WEATHER SERVICE GREAT FALLS MT
904 PM MDT WED APR 23 2014

NOTE: "FAIR" INDICATES FEW OR NO CLOUDS BELOW 12000 FEET WITH NO
SIGNIFICANT WEATHER AND/OR OBSTRUCTIONS TO VISIBILITY.

* THESE STATIONS ARE NOT UNDER NWS QUALITY CONTROL. THEY DO NOT
   REPORT WEATHER SUCH AS PRECIPITATION OR FOG.

MTZ001>007-043-240400-
WEST OF THE DIVIDE
CITY           SKY/WX    TMP DP  RH WIND       PRES   REMARKS
KALISPELL      MOCLDY    39  30  70 S14       29.81R WCI  31
MISSOULA       LGT RAIN  41  34  76 W7        29.88R
BUTTE          CLOUDY    36  23  59 W7        29.86R WCI  30
MULLAN PASS    CLOUDY    27  25  92 VRB6      29.80R WCI  20
* ESSEX        N/A       39  24  55 SW3        N/A
* LINCOLN      N/A       36  28  73 SW7G19     N/A   WCI  30
* LOOKOUT PASS N/A       34  29  82 SE4        N/A
* POLSON       N/A       36  30  79 NE1        N/A
* RONAN APT    MOCLDY    45  28  51 SW8        N/A
* SEELEY LAKE  N/A       35  32  89 NE3        N/A
* THOMP F APT  MOCLDY    36  20  52 NW4G11     N/A
$$

MTZ008-052>055-240400-
SOUTHWEST MONTANA
CITY           SKY/WX    TMP DP  RH WIND       PRES   REMARKS
BOZEMAN        CLOUDY    43  25  49 W8        29.86R
DILLON         MOCLDY    37  27  67 S10       29.86S WCI  30
W YELLOWSTONE  N/A       31  25  78 S3G9       N/A
* THREE FORKS  MOCLDY    45  27  49 SW9        N/A
* BOULDER HILL N/A       33  21  61 SE6G16     N/A   WCI  27
* MONIDA PASS  N/A       32  15  49 SW6G12     N/A   WCI  26
* RAYNOLDS PAS N/A       33  18  54 S1         N/A
* WHITEHALL    N/A       40  21  47 W12G23     N/A   WCI  33
* WISE RIVER   N/A       34  24  67 NW7G14     N/A   WCI  28
$$

MTZ009>010-012-014-046-048-049-054-240400-
EAST SLOPES AND CENTRAL MONTANA
CITY           SKY/WX    TMP DP  RH WIND       PRES   REMARKS
CUT BANK       CLEAR     37  23  57 W21       29.67R WCI  26
GREAT FALLS    PTCLDY    37  28  70 SW15      29.75R WCI  28
HELENA         CLOUDY    41  28  60 W3        29.84R
MALMSTROM AFB  MOCLDY    43  25  49 SW17G24   29.72R
* CONRAD       CLEAR     39  27  62 S11G21     N/A   WCI  32
* DEARBORN     N/A       44  25  47 S13G25     N/A
* EAST GLACIER N/A       35  20  54 W13G26     N/A   WCI  26
* MONARCH      N/A       35  13  40 W12G24     N/A   WCI  27
* PENDROY      N/A       37  21  52 SW10       N/A   WCI  30
* ROGERS PASS  N/A       30  27  89 E6G16      N/A   WCI  24
* SAINT MARY   N/A       35  23  62 SW8G18     N/A   WCI  28
* SWEET GRASS  N/A       40  22  49 W26G32     N/A   WCI  29
$$

MTZ011-013-016-021-035-040-045-047-050-051-240400-
NORTH CENTRAL MONTANA
CITY           SKY/WX    TMP DP  RH WIND       PRES   REMARKS
HAVRE          PTCLDY    46  23  40 W21G29    29.65R
LEWISTOWN      PTCLDY    39  25  57 SW20      29.76R WCI  29
* CHESTER      N/A       46  21  37 W14G20     N/A
* DENTON       N/A       41  20  43 W16        N/A
* GEYSER       N/A       40  14  35 W16        N/A   WCI  32
* JUDITH GAP   N/A       37  26  64 W6         N/A   WCI  32
* LOMA         N/A       47  24  40 S15G20     N/A
$$

MTZ017>020-022>027-061-062-240400-
NORTHEAST MONTANA
CITY           SKY/WX    TMP DP  RH WIND       PRES   REMARKS
GLASGOW        CLEAR     50  23  35 W18G26    29.63R
GLENDIVE       CLEAR     39  19  45 W10       29.70R WCI  32
JORDAN         PTCLDY    52  19  27 W13G21    29.69R
SIDNEY         CLEAR     46  25  44 SW10      29.65R
WOLF POINT     PTCLDY    48  18  30 W8        29.62R
* BEAVER HILL  N/A       47  21  36 SW11       N/A
* CIRCLE       N/A       54  22  29 SW3G12     N/A
* LINDSAY DVD  N/A       47  18  31 W12        N/A
* NAVAJO       N/A       48  29  48 SW9        N/A
* SACO         N/A       50  23  35 SW22G34    N/A
$$

MTZ028>042-056>058-240400-
SOUTHCENTRAL AND SOUTHEAST MONTANA
CITY           SKY/WX    TMP DP  RH WIND       PRES   REMARKS
BAKER          PTCLDY    45  25  45 SW13      29.72R
BILLINGS       PTCLDY    45  23  42 NW15      29.80R
LIVINGSTON     CLOUDY    43  21  42 W18G23    29.81R
MILES CITY     PTCLDY    48  21  34 W12       29.73R
* LAUREL APT   PTCLDY    46  18  33 W13G18     N/A
* ROUNDUP APT  MOCLDY    45  21  38 W14G23     N/A
* HYSHAM       N/A       48  14  25 W9G17      N/A
* REED POINT   N/A       45  21  38 SW4G9      N/A
* ROSCOE HILL  N/A       39  10  30 S4         N/A
$$

REGIONAL REPORTS...DAKOTAS
CITY           SKY/WX    TMP DP  RH WIND       PRES   REMARKS
WILLISTON      MOCLDY    46  37  71 CALM      29.62R
DICKINSON      CLOUDY    45  27  49 NW7       29.67R
CROSBY         MOCLDY    45  45 100 SW3       29.61R
TIOGA          MOCLDY    41  41 100 SW6       29.65R
WATFORD CITY   CLEAR     43  27  53 CALM      29.63R
BISMARCK       FAIR      46 N/A N/A N5        29.70R
GRAND FORKS    LGT RAIN  39  37  93 SE26G37   29.84S WCI  28
FARGO          CLOUDY    43  37  79 SE17G28   29.81F
BUFFALO SD     MOCLDY    46  28  50 W12       29.67R
RAPID CITY     MOCLDY    46  32  58 N13       29.77R
$$

REGIONAL REPORTS...WYOMING/IDAHO/WASHINGTON
CITY           SKY/WX    TMP DP  RH WIND       PRES   REMARKS
GILLETTE       MOCLDY    37  25  62 W6        29.82R WCI  32
SHERIDAN       PTCLDY    45  19  35 W9        29.82R
CODY           PTCLDY    39  21  48 W7G16     29.87R WCI  34
YELLOWSTONE LA PTCLDY    27  19  72 W8        29.93R WCI  19
SALMON         MOCLDY    45  21  38 SW7       29.89R
MULLAN PASS    CLOUDY    27  25  92 VRB6      29.80S WCI  20
SPOKANE        CLOUDY    45  36  71 SW14      29.83S

$$




USA.gov is the U.S. government's official web portal to all federal, state and local government web resources and services.